sat.trackr.live / text

‹ back to catalog

STARLINK-30493

NORAD 58116 · 2023-161V

PAYLOAD ACTIVE UNKNOWN

§ Identity

Operator
Country
US
Launch date
2023-10-21
Launch site
AFWTR
Launch vehicle
Mass (kg)
RCS (m²)

Purposes: comms

External: N2YO · Heavens-Above · Gunter

§ Orbital elements

Epoch: 2026-09-20T21:52:36.851232Z

Period
93.85 min
Inclination
53.1622°
Eccentricity
0.0001074
Mean motion
15.34394111 rev/d
Perigee alt
462.0 km
Apogee alt
463.5 km
Semi-major
6,840.9 km
B*
1.8451e-5
RAAN
337.8496°
Arg perigee
83.5585°
Mean anomaly
276.5540°
Rev number
16,432

§ Raw data

STARLINK-304931 58116U 23161V   26263.91153763  .00000247  00000+0  18451-4 0  99932 58116  53.1622 337.8496 0001074  83.5585 276.5540 15.34394111164325

JSON: /api/v1/satellites/58116 · /tle

For live sub-satellite position, see the globe view (requires WebGL).

§ Visibility from observer

Set your observer location to see the next 7 days of passes ≥ 10°. The values pass through the URL so the page stays shareable.

No JS? Fill the form by hand. The geolocation button needs JavaScript.